Location: St. Louis
(38.6270°N, 90.1994°W)
Time: 11:44:38
(UTC-06:00)

S-56A Canister/Altair - Pass Details

Date: 05 December 2021
Orbit: 634 x 2499 km, 38.9° (Epoch: 26 January)

Event Time Altitude Azimuth Distance (km) Brightness Sun altitude
Rises 02:34:25 0° 276° (W) 4,502 - -51.7°
Reaches altitude 10° 02:37:56 10° 276° (W) 3,224 - -51.1°
Maximum altitude 02:45:27 88° 191° (SSW) 917 - -49.6°
Drops below altitude 10° 02:50:37 10° 99° (E) 2,250 - -48.6°
Exits shadow 02:52:06 - 99° (E) 2,823 11.0 -48.4°
Sets 02:52:42 0° 99° (E) 3,062 11.3 -48.2°
